Location: Étang Rond
(42.7927°N, 1.0661°E)
Time: 22:18:49
(UTC+00:00)

Cosmos 2278 Rocket - Pass Details

Date: 08 November 2025
Orbit: 841 x 843 km, 71.0° (Epoch: 12 December)

Event Time Altitude Azimuth Distance (km) Brightness Sun altitude
Exits shadow 05:11:53 - 334° (NNW) 2,883 4.7 -16.2°
Reaches altitude 10° 05:12:58 10° 334° (NNW) 2,467 4.3 -16.0°
Maximum altitude 05:18:39 85° 247° (WSW) 851 2.1 -15.0°
Drops below altitude 10° 05:24:17 10° 160° (SSE) 2,452 5.0 -14.0°
Sets 05:26:42 0° 159° (SSE) 3,383 5.8 -13.5°
